ARIANE 42P DEB, 44513

Orbit data source: Space-Track

ARIANE 42P DEB, 44513 is space debris in LEO originally from a launch on Mon, 10 Aug 1992 UTC launched from the French Guiana (FRGUI). Debris objects in space refer to the collection of defunct objects orbiting the Earth. Examples of debris include non-operational satellites, rocket bodies, and fragments generated from explosions, collisions, or faulty payload assembly.

Loading next visibility...
Identifier
44513, 1992-052L
Orbit
LEO
Country
Flag of FRFR
Related business
Manufacturer
ArianeGroup
Mission
Spacecraft
Bus & Motor
Unknown
Mass
Unknown
Launch date (UTC)
1992-08-10 (34 years ago)
Launch vehicle
Unknown
Launch site
French Guiana (FRGUI)
Object type
Payload
Rocket body
Debris
Shape & HBR
Unknown shape, 0.1 m
Radar Cross Section
Small (<0.1 m²)

Expand to show TLE details & history
Last TLE update: 1 week ago

TLE from 1 week ago
0 ARIANE 42P DEB
1 44513U 92052L   26087.78423208  .00001387  00000-0  62731-2 0  9992
2 44513  66.0381 109.0106 0085355 329.2918  30.3117 12.79934188308435
Epoch: 2026-03-28T18:49Z
TLE epoch observation values (Epoch: 2026-03-28T18:49:17.651Z)
Latitude
-0.00004°
Longitude
0.48753°
Altitude
1,286.898 km
Speed
7.24 km/s
True Right ascension
07h 16m 02s
True Declination
0° 00' 00"
Sunlit
Object was in daylight at epoch
Visualization orbit readout
Latitude
Unknown
Longitude
Unknown
Altitude
Unknown
Speed
Unknown
Apparent Right ascension
Unknown
Apparent Declination
Unknown
Sunlit
N/A
Visualization observer readout
Local Sidereal Time
19:10:13
Azimuth
Unknown
Elevation
Unknown
Doppler factor
Unknown
Orbital elements
Apogee altitude
1,406.179 km
Perigee altitude
1,274.418 km
Semi-major axis
7,718.435 km
Eccentricity
0.00854
Inclination
66.0381°
RAAN
109.0106°
Arg. of periapsis
329.2918°
True anomaly
30.80993°
Mean anomaly
30.3117°
Eccentric anomaly
30.56035°
Mean motion
3.20073 °/min
Orbital period
112.47 mins
BSTAR
0.0062731
Loading maneuver chart data...
Computing Atmospheric mass density...
Loading historical data...
Loading historical data...
Loading historical data...
Loading historical data...
Loading historical data...
Loading historical data...
Loading historical data...

Documentation

Showing up to 5 results
|